When you browse on this site, cookies collect data to enhance your experience and personalize the content and advertising you see.
Visit our Privacy Policy to learn more. By continuing to use the site, you agree to this use of cookies and data.
  • în România
  • Lista ţărilor
  • Pe 7 zile
  • Temperatura apei
  • Hartă satelitară
  • Meteo pe hartă
  • Widget-uri
  • user-avatar
    Intrare

    Meteo pe oră la Coasta de Aur

    Astăzi, 20 Iunie, Joi

    Timp Temperatura Precipitaţii Vânt Presiune Umiditate
    00:00 +13°C° 0 mm 4 m/s 761 mmHg 90%
    01:00 +12°C° 0 mm 4 m/s 760 mmHg 90%
    02:00 +12°C° 0 mm 4 m/s 760 mmHg 91%
    03:00 +12°C° 0 mm 5 m/s 760 mmHg 91%
    04:00 +12°C° 0 mm 5 m/s 760 mmHg 92%
    05:00 +12°C° 0 mm 5 m/s 761 mmHg 90%
    06:00 +12°C° 0 mm 5 m/s 761 mmHg 89%
    07:00 +11°C° 0 mm 4 m/s 762 mmHg 88%
    08:00 +13°C° 0 mm 4 m/s 762 mmHg 80%
    09:00 +15°C° 0 mm 4 m/s 762 mmHg 72%
    10:00 +17°C° 0 mm 5 m/s 762 mmHg 61%
    11:00 +19°C° 0 mm 5 m/s 761 mmHg 61%
    12:00 +20°C° 0 mm 5 m/s 761 mmHg 60%
    13:00 +21°C° 0 mm 5 m/s 760 mmHg 60%
    14:00 +20°C° 0 mm 5 m/s 760 mmHg 63%
    15:00 +19°C° 0 mm 4 m/s 760 mmHg 67%
    16:00 +18°C° 0 mm 4 m/s 760 mmHg 71%
    17:00 +18°C° 0 mm 4 m/s 760 mmHg 75%
    18:00 +17°C° 0 mm 4 m/s 761 mmHg 79%
    19:00 +15°C° 0 mm 4 m/s 761 mmHg 83%
    20:00 +14°C° 0 mm 3 m/s 761 mmHg 87%
    21:00 +14°C° 0 mm 3 m/s 761 mmHg 90%
    22:00 +13°C° 0 mm 3 m/s 761 mmHg 93%
    23:00 +14°C° 0.1 mm 2 m/s 761 mmHg 91%

    Mâine, 21 Iunie, Vineri

    Timp Temperatura Precipitaţii Vânt Presiune Umiditate
    00:00 +15°C° 0.1 mm 2 m/s 760 mmHg 90%
    01:00 +15°C° 0.1 mm 2 m/s 760 mmHg 88%
    02:00 +15°C° 0 mm 2 m/s 760 mmHg 88%
    03:00 +15°C° 0 mm 2 m/s 760 mmHg 89%
    04:00 +14°C° 0 mm 2 m/s 759 mmHg 89%
    05:00 +14°C° 0 mm 2 m/s 759 mmHg 91%
    06:00 +14°C° 0 mm 2 m/s 759 mmHg 93%
    07:00 +13°C° 0 mm 2 m/s 759 mmHg 94%
    08:00 +16°C° 0 mm 2 m/s 760 mmHg 81%
    09:00 +18°C° 0 mm 2 m/s 760 mmHg 68%
    10:00 +21°C° 0 mm 1 m/s 760 mmHg 55%
    11:00 +21°C° 0 mm 2 m/s 759 mmHg 51%
    12:00 +23°C° 0 mm 2 m/s 759 mmHg 47%
    13:00 +23°C° 0 mm 2 m/s 758 mmHg 44%
    14:00 +21°C° 0 mm 3 m/s 758 mmHg 47%
    15:00 +21°C° 0 mm 4 m/s 758 mmHg 51%
    16:00 +20°C° 0 mm 5 m/s 758 mmHg 55%
    17:00 +17°C° 0 mm 5 m/s 759 mmHg 63%
    18:00 +15°C° 0 mm 6 m/s 760 mmHg 72%
    19:00 +13°C° 0 mm 6 m/s 760 mmHg 80%
    20:00 +11°C° 0 mm 6 m/s 761 mmHg 80%
    21:00 +12°C° 0 mm 5 m/s 761 mmHg 80%
    22:00 +10°C° 0 mm 5 m/s 761 mmHg 81%
    23:00 +10°C° 0 mm 5 m/s 761 mmHg 82%

    Poimâine, 22 Iunie, Sâmbătă

    Timp Temperatura Precipitaţii Vânt Presiune Umiditate
    00:00 +9°C° 0 mm 5 m/s 761 mmHg 84%
    01:00 +9°C° 0 mm 6 m/s 761 mmHg 86%
    02:00 +8°C° 0 mm 6 m/s 761 mmHg 85%
    03:00 +7°C° 0 mm 6 m/s 761 mmHg 84%
    04:00 +7°C° 0 mm 6 m/s 761 mmHg 84%
    05:00 +6°C° 0 mm 5 m/s 761 mmHg 82%
    06:00 +6°C° 0 mm 5 m/s 762 mmHg 81%
    07:00 +6°C° 0 mm 5 m/s 762 mmHg 80%
    08:00 +9°C° 0 mm 5 m/s 762 mmHg 72%
    09:00 +13°C° 0 mm 5 m/s 762 mmHg 63%
    10:00 +15°C° 0 mm 5 m/s 762 mmHg 55%
    11:00 +16°C° 0 mm 5 m/s 761 mmHg 52%
    12:00 +17°C° 0 mm 5 m/s 761 mmHg 49%
    13:00 +19°C° 0 mm 5 m/s 760 mmHg 47%
    14:00 +17°C° 0 mm 5 m/s 760 mmHg 50%
    15:00 +17°C° 0 mm 5 m/s 760 mmHg 54%
    16:00 +16°C° 0 mm 5 m/s 760 mmHg 57%
    17:00 +14°C° 0 mm 5 m/s 761 mmHg 67%
    18:00 +13°C° 0 mm 5 m/s 761 mmHg 76%
    19:00 +10°C° 0 mm 5 m/s 762 mmHg 85%
    20:00 +9°C° 0.1 mm 5 m/s 762 mmHg 88%
    21:00 +9°C° 0.1 mm 5 m/s 762 mmHg 90%
    22:00 +10°C° 0.1 mm 4 m/s 762 mmHg 93%
    23:00 +10°C° 0.2 mm 4 m/s 762 mmHg 93%

    23 Iunie, Duminică

    Timp Temperatura Precipitaţii Vânt Presiune Umiditate
    00:00 +8°C° 0.2 mm 4 m/s 762 mmHg 94%
    01:00 +8°C° 0.2 mm 4 m/s 762 mmHg 95%
    02:00 +8°C° 0.1 mm 5 m/s 762 mmHg 94%
    03:00 +8°C° 0.1 mm 5 m/s 762 mmHg 93%
    04:00 +8°C° 0.1 mm 5 m/s 762 mmHg 93%
    05:00 +8°C° 0 mm 5 m/s 762 mmHg 91%
    06:00 +8°C° 0 mm 5 m/s 762 mmHg 90%
    07:00 +8°C° 0 mm 5 m/s 762 mmHg 88%
    08:00 +10°C° 0 mm 5 m/s 763 mmHg 79%
    09:00 +14°C° 0 mm 5 m/s 763 mmHg 69%
    10:00 +16°C° 0 mm 5 m/s 763 mmHg 60%
    11:00 +17°C° 0 mm 5 m/s 762 mmHg 57%
    12:00 +17°C° 0 mm 5 m/s 761 mmHg 55%
    13:00 +19°C° 0 mm 5 m/s 761 mmHg 53%
    14:00 +17°C° 0.3 mm 5 m/s 761 mmHg 59%
    15:00 +16°C° 0.3 mm 5 m/s 761 mmHg 65%
    16:00 +15°C° 0.3 mm 5 m/s 761 mmHg 71%
    17:00 +14°C° 0.4 mm 4 m/s 761 mmHg 76%
    18:00 +13°C° 0.4 mm 4 m/s 762 mmHg 81%
    19:00 +12°C° 0.4 mm 4 m/s 762 mmHg 86%
    20:00 +12°C° 0.1 mm 4 m/s 763 mmHg 86%
    21:00 +12°C° 0.1 mm 4 m/s 763 mmHg 87%
    22:00 +12°C° 0.1 mm 4 m/s 763 mmHg 87%
    23:00 +11°C° 0.2 mm 4 m/s 763 mmHg 88%

    24 Iunie, Luni

    Timp Temperatura Precipitaţii Vânt Presiune Umiditate
    00:00 +11°C° 0.2 mm 3 m/s 763 mmHg 90%
    01:00 +11°C° 0.2 mm 3 m/s 763 mmHg 91%
    02:00 +10°C° 0.1 mm 4 m/s 763 mmHg 91%
    03:00 +10°C° 0.1 mm 4 m/s 763 mmHg 91%
    04:00 +10°C° 0.1 mm 4 m/s 762 mmHg 92%
    05:00 +9°C° 0 mm 5 m/s 763 mmHg 91%
    06:00 +9°C° 0 mm 5 m/s 763 mmHg 90%
    07:00 +9°C° 0 mm 5 m/s 764 mmHg 89%
    08:00 +12°C° 0.1 mm 5 m/s 764 mmHg 82%
    09:00 +14°C° 0.1 mm 6 m/s 764 mmHg 74%
    10:00 +16°C° 0.1 mm 6 m/s 764 mmHg 67%
    11:00 +15°C° 0.6 mm 6 m/s 764 mmHg 70%
    12:00 +15°C° 0.6 mm 6 m/s 764 mmHg 73%
    13:00 +15°C° 0.6 mm 7 m/s 763 mmHg 77%
    14:00 +15°C° 0.6 mm 7 m/s 764 mmHg 76%
    15:00 +15°C° 0.6 mm 7 m/s 764 mmHg 75%
    16:00 +15°C° 0.6 mm 7 m/s 764 mmHg 74%
    17:00 +14°C° 0.3 mm 7 m/s 764 mmHg 79%
    18:00 +13°C° 0.3 mm 6 m/s 765 mmHg 84%
    19:00 +11°C° 0.3 mm 6 m/s 765 mmHg 90%
    20:00 +12°C° 0.3 mm 5 m/s 766 mmHg 91%
    21:00 +12°C° 0.3 mm 5 m/s 766 mmHg 92%
    22:00 +10°C° 0.3 mm 5 m/s 766 mmHg 94%
    23:00 +10°C° 0.2 mm 5 m/s 766 mmHg 94%

    25 Iunie, Marţi

    Timp Temperatura Precipitaţii Vânt Presiune Umiditate
    00:00 +10°C° 0.2 mm 5 m/s 765 mmHg 94%
    01:00 +10°C° 0.2 mm 5 m/s 765 mmHg 94%
    02:00 +10°C° 0.1 mm 5 m/s 765 mmHg 94%
    03:00 +10°C° 0.1 mm 5 m/s 765 mmHg 94%
    04:00 +10°C° 0.1 mm 5 m/s 765 mmHg 94%
    05:00 +10°C° 0.1 mm 5 m/s 766 mmHg 95%
    06:00 +11°C° 0.1 mm 4 m/s 766 mmHg 95%
    07:00 +10°C° 0.1 mm 4 m/s 767 mmHg 96%
    08:00 +12°C° 0 mm 5 m/s 767 mmHg 86%
    09:00 +15°C° 0 mm 5 m/s 767 mmHg 77%
    10:00 +17°C° 0 mm 5 m/s 767 mmHg 67%
    11:00 +17°C° 0.1 mm 5 m/s 766 mmHg 66%
    12:00 +19°C° 0.1 mm 6 m/s 766 mmHg 66%
    13:00 +19°C° 0.1 mm 6 m/s 766 mmHg 66%
    14:00 +19°C° 0.1 mm 6 m/s 766 mmHg 67%
    15:00 +17°C° 0.1 mm 6 m/s 766 mmHg 69%
    16:00 +17°C° 0.1 mm 6 m/s 766 mmHg 70%
    17:00 +16°C° 0 mm 6 m/s 766 mmHg 75%
    18:00 +15°C° 0 mm 6 m/s 766 mmHg 80%
    19:00 +14°C° 0 mm 6 m/s 767 mmHg 85%
    20:00 +14°C° 0.1 mm 6 m/s 767 mmHg 85%
    21:00 +14°C° 0.1 mm 6 m/s 767 mmHg 85%
    22:00 +13°C° 0.1 mm 6 m/s 767 mmHg 85%
    23:00 +13°C° 0 mm 6 m/s 767 mmHg 87%
    Arată mai mult